Location: ČR
(50.0000°N, 15.0000°E)
Time: 19:19:59
(UTC+02:00)

Tiros 1 despin weight - Pass Details

Date: 25 May 2026
Orbit: 554 x 591 km, 48.2° (Epoch: 10 June)

Event Time Altitude Azimuth Distance (km) Brightness Sun altitude
Exits shadow 03:01:33 23° 208° (SSW) 1,220 ? -13.9°
Maximum altitude 03:03:35 38° 156° (SSE) 874 ? -13.7°
Drops below altitude 10° 03:07:33 10° 88° (E) 1,863 ? -13.4°
Sets 03:09:54 0° 81° (E) 2,755 ? -13.2°
